FW6683 Weather Reports


time (UTC)temp
F
wind
direction
speed
knots
gust
knots
rain 1hr
in
rain 24hr
in
rain mn
in
humidity
%
barometer
mb
20240420162046 53 65 3.5 8.7 0.00 0.00 0.00 71 1029.6
20240420161546 53 102 4.3 7.8 0.00 0.00 0.00 70 1029.5
20240420161047 54 360 4.3 8.7 0.00 0.00 0.00 71 1029.7
20240420160546 54 89 5.2 9.6 0.00 0.00 0.00 70 1029.6
20240420160047 54 86 6.1 9.6 0.00 0.00 0.00 70 1029.6
20240420155547 54 136 5.2 8.7 0.00 0.00 0.00 70 1029.6
20240420155043 54 96 4.3 8.7 0.00 0.00 0.00 70 1029.6
20240420154547 54 112 6.1 8.7 0.00 0.00 0.00 69 1029.5
20240420154043 54 83 2.6 7.8 0.00 0.00 0.00 70 1029.6
20240420153542 54 91 4.3 7.8 0.00 0.00 0.00 68 1029.6
20240420153044 54 98 3.5 8.7 0.00 0.00 0.00 69 1029.7
20240420152544 54 108 2.6 8.7 0.00 0.00 0.00 68 1029.6
20240420152041 54 123 3.5 7.8 0.00 0.00 0.00 68 1029.7
20240420151542 54 74 4.3 7.0 0.00 0.00 0.00 69 1029.7
20240420151040 54 116 1.7 7.8 0.00 0.00 0.00 69 1029.7
20240420150539 54 101 2.6 7.8 0.00 0.00 0.00 69 1029.7
20240420150039 54 84 3.5 7.0 0.00 0.01 0.00 69 1029.7
20240420145539 54 80 2.6 7.0 0.00 0.01 0.00 69 1029.7
20240420145038 54 109 2.6 7.8 0.00 0.01 0.00 69 1029.7
20240420144538 54 98 2.6 7.0 0.00 0.01 0.00 69 1029.8
20240420144037 54 100 2.6 9.6 0.00 0.01 0.00 70 1029.9
20240420143539 54 123 4.3 9.6 0.00 0.01 0.00 69 1030.0
20240420143037 54 101 2.6 8.7 0.00 0.01 0.00 70 1030.0
20240420142537 53 88 3.5 10.4 0.00 0.01 0.00 70 1030.0
20240420142035 54 108 6.1 8.7 0.00 0.01 0.00 70 1030.0
20240420141537 54 106 3.5 7.0 0.00 0.01 0.00 68 1030.0
20240420141034 54 120 4.3 7.8 0.00 0.01 0.00 68 1030.0
20240420140534 54 108 4.3 10.4 0.00 0.01 0.00 68 1030.0
20240420140055 54 121 4.3 7.8 0.00 0.01 0.00 68 1030.0
20240420135533 54 51 1.7 8.7 0.00 0.01 0.00 69 1030.0
20240420135032 55 106 4.3 8.7 0.00 0.01 0.00 68 1030.0
20240420134546 55 101 1.7 7.8 0.00 0.01 0.00 69 1030.1
20240420134032 54 91 0.9 7.8 0.00 0.01 0.00 70 1030.0
20240420133531 54 79 3.5 7.8 0.00 0.01 0.00 69 1030.0
20240420133035 54 123 4.3 7.8 0.00 0.01 0.00 68 1030.0
20240420132534 54 110 3.5 8.7 0.00 0.01 0.00 69 1030.0
20240420132030 54 98 3.5 7.0 0.00 0.01 0.00 70 1030.1
20240420131529 54 340 0.9 8.7 0.00 0.01 0.00 70 1030.0
20240420131029 54 104 1.7 8.7 0.00 0.01 0.00 69 1030.1
20240420130527 55 120 3.5 7.8 0.00 0.01 0.00 67 1030.0
20240420130055 55 92 3.5 7.0 0.00 0.01 0.00 61 1030.0
20240420125528 56 91 2.6 7.0 0.00 0.01 0.00 63 1029.9
20240420125029 56 101 1.7 4.3 0.00 0.01 0.00 63 1030.0
20240420124526 56 84 0.9 3.5 0.00 0.01 0.00 64 1030.0
20240420124028 55 69 0.9 7.0 0.00 0.01 0.00 63 1029.9
20240420123527 56 114 1.7 7.0 0.00 0.01 0.00 60 1029.9
20240420123026 56 94 3.5 5.2 0.00 0.01 0.00 59 1030.0
20240420122525 55 11 0.0 4.3 0.00 0.01 0.00 62 1029.9
20240420122028 55 356 0.9 7.0 0.00 0.01 0.00 62 1029.8
20240420121524 55 97 3.5 7.0 0.00 0.01 0.00 59 1029.8
20240420121023 55 1 0.9 5.2 0.00 0.01 0.00 61 1029.8
20240420120524 56 100 1.7 6.1 0.00 0.01 0.00 61 1029.8
20240420120024 56 124 0.9 6.1 0.00 0.01 0.00 61 1029.9
20240420115524 56 32 0.0 3.5 0.00 0.01 0.00 62 1029.8
20240420115021 56 351 0.0 7.8 0.00 0.01 0.00 64 1029.8
20240420114522 56 359 1.7 7.8 0.00 0.01 0.00 63 1029.8
20240420114021 56 75 0.9 5.2 0.00 0.01 0.00 62 1029.8
20240420113522 55 350 0.9 5.2 0.00 0.01 0.00 61 1029.7
20240420113019 55 105 1.7 3.5 0.00 0.01 0.00 61 1029.8
20240420112521 55 146 0.9 6.1 0.00 0.01 0.00 59 1029.7
20240420112017 55 135 2.6 6.1 0.00 0.01 0.00 58 1029.8
20240420111525 55 289 0.9 2.6 0.00 0.01 0.00 58 1029.8
20240420111016 55 90 0.0 3.5 0.00 0.01 0.00 60 1029.7
20240420110514 54 86 0.0 5.2 0.00 0.01 0.00 61 1029.8
20240420110018 54 89 2.6 6.1 0.00 0.03 0.00 59 1029.8
20240420105513 54 101 3.5 6.1 0.00 0.03 0.00 60 1029.8
20240420105012 54 242 0.9 3.5 0.00 0.03 0.00 60 1029.9
20240420104514 54 131 1.7 3.5 0.00 0.03 0.00 61 1030.0
20240420104012 54 109 1.7 3.5 0.00 0.03 0.00 61 1030.0
20240420103510 54 96 0.9 2.6 0.00 0.03 0.00 63 1030.1
20240420103009 54 1 0.0 3.5 0.00 0.03 0.00 62 1030.0
20240420102507 54 325 0.0 3.5 0.00 0.03 0.00 63 1030.0
20240420102107 54 328 0.9 2.6 0.00 0.03 0.00 64 1030.0
20240420101506 54 349 0.9 2.6 0.00 0.03 0.00 65 1030.1
20240420101004 53 359 0.9 3.5 0.00 0.03 0.00 66 1030.1
20240420100508 53 63 0.9 3.5 0.00 0.03 0.00 64 1030.2
20240420100005 53 115 1.7 3.5 0.00 0.03 0.00 63 1030.1
20240420095501 53 96 1.7 3.5 0.00 0.03 0.00 63 1030.1
20240420095059 53 58 0.9 2.6 0.00 0.03 0.00 66 1030.1
20240420094558 53 302 0.9 2.6 0.00 0.03 0.00 66 1030.1
20240420094058 53 335 0.0 1.7 0.00 0.03 0.00 67 1030.1
20240420093557 52 335 0.0 1.7 0.00 0.03 0.00 69 1030.1
20240420093059 52 359 0.0 0.0 0.00 0.03 0.00 70 1030.2
20240420092552 52 358 0.0 0.0 0.00 0.03 0.00 71 1030.2
20240420092052 52 107 0.0 0.0 0.00 0.03 0.00 71 1030.3
20240420091551 51 306 0.0 0.0 0.00 0.03 0.00 72 1030.3
20240420091054 51 307 0.0 0.0 0.00 0.03 0.00 73 1030.3
20240420090549 51 305 0.0 0.0 0.00 0.03 0.00 73 1030.3
20240420090050 51 302 0.0 0.0 0.00 0.03 0.00 73 1030.4
20240420085546 52 276 0.0 0.0 0.00 0.03 0.00 74 1030.4
20240420085045 51 221 0.0 0.0 0.00 0.03 0.00 74 1030.3
20240420084601 51 233 0.0 0.0 0.00 0.03 0.00 74 1030.3
20240420084042 51 233 0.0 0.0 0.00 0.03 0.00 75 1030.2
20240420083542 50 233 0.0 0.0 0.00 0.03 0.00 76 1030.3
20240420083112 50 233 0.0 0.0 0.00 0.03 0.00 78 1030.2
20240420082538 50 233 0.0 0.0 0.00 0.03 0.00 76 1030.2
20240420082039 50 233 0.0 0.0 0.00 0.03 0.00 75 1030.1
20240420081545 50 232 0.0 0.0 0.00 0.03 0.00 77 1030.0
20240420081034 50 232 0.0 0.0 0.00 0.03 0.00 77 1029.9
20240420080533 50 229 0.0 0.0 0.00 0.03 0.00 78 1029.9
20240420080038 49 224 0.0 0.0 0.00 0.03 0.00 80 1029.9
20240420075530 48 224 0.0 0.0 0.00 0.03 0.00 82 1029.8
20240420075029 48 224 0.0 0.0 0.00 0.03 0.00 84 1029.7
20240420074527 47 224 0.0 0.0 0.00 0.03 0.00 86 1029.8
20240420074025 46 224 0.0 0.0 0.00 0.03 0.00 88 1029.8
20240420073524 46 224 0.0 0.0 0.00 0.03 0.00 88 1029.8
20240420073023 45 224 0.0 0.0 0.00 0.03 0.00 89 1029.7
20240420072521 45 224 0.0 0.0 0.00 0.03 0.00 89 1029.7
20240420072021 45 224 0.0 0.0 0.00 0.03 0.00 90 1029.6
20240420071519 44 224 0.0 0.0 0.00 0.03 0.00 91 1029.5
20240420071019 44 224 0.0 0.0 0.00 0.03 0.00 93 1029.6
20240420070517 43 224 0.0 0.0 0.00 0.03 0.00 92 1029.4
20240420070016 43 224 0.0 0.0 0.00 0.03 0.00 92 1029.3
20240420065517 42 224 0.0 0.0 0.00 0.03 0.00 93 1029.4
20240420065014 42 224 0.0 0.0 0.00 0.03 0.00 93 1029.4
20240420064512 41 224 0.0 0.0 0.00 0.03 0.00 93 1029.4
20240420064012 41 224 0.0 0.0 0.00 0.03 0.00 94 1029.4
20240420063510 40 224 0.0 0.0 0.00 0.03 0.00 94 1029.4
20240420063010 40 224 0.0 0.0 0.00 0.03 0.00 94 1029.3
20240420062509 40 224 0.0 0.0 0.00 0.03 0.00 94 1029.4
20240420062007 39 224 0.0 0.0 0.00 0.03 0.00 94 1029.3
20240420061508 39 224 0.0 0.0 0.00 0.03 0.00 94 1029.3
20240420061004 38 224 0.0 0.0 0.00 0.03 0.00 94 1029.2
20240420060503 38 224 0.0 0.0 0.00 0.03 0.00 94 1029.2
20240420060002 38 224 0.0 0.0 0.00 0.03 0.00 94 1029.1
20240420055602 38 224 0.0 0.0 0.00 0.03 0.00 94 1029.0
20240420055100 38 224 0.0 0.0 0.00 0.03 0.00 94 1029.1
20240420054558 37 224 0.0 0.0 0.00 0.03 0.00 93 1028.9
20240420054057 37 224 0.0 0.0 0.00 0.03 0.00 94 1028.7
20240420053557 37 224 0.0 0.0 0.00 0.03 0.00 93 1028.8
20240420053056 37 224 0.0 0.0 0.00 0.03 0.00 93 1028.8
20240420052554 37 224 0.0 0.0 0.00 0.03 0.00 93 1028.6
20240420052055 37 224 0.0 0.0 0.00 0.03 0.00 93 1028.6
20240420051553 37 224 0.0 0.0 0.00 0.03 0.00 93 1028.7
20240420051052 37 224 0.0 0.0 0.00 0.03 0.00 93 1028.4
20240420050552 37 224 0.0 0.0 0.00 0.03 0.00 93 1028.5
20240420050051 37 224 0.0 0.0 0.00 0.03 0.00 93 1028.5
20240420045550 37 224 0.0 0.0 0.00 0.03 0.00 93 1028.3
20240420045049 37 224 0.0 0.0 0.00 0.03 0.00 93 1028.4
20240420044549 37 224 0.0 0.0 0.00 0.03 0.00 93 1028.4
20240420044049 37 224 0.0 0.0 0.00 0.03 0.00 93 1028.4
20240420043548 37 224 0.0 0.0 0.00 0.03 0.00 93 1028.4
20240420043052 37 224 0.0 0.0 0.00 0.03 0.00 93 1028.3
20240420042547 38 224 0.0 0.0 0.00 0.03 0.00 93 1028.3
20240420042046 38 224 0.0 0.0 0.00 0.03 0.00 93 1028.4
20240420041546 38 224 0.0 0.0 0.00 0.03 0.00 93 1028.3
20240420041045 38 224 0.0 0.0 0.00 0.03 0.00 93 1028.2
20240420040546 38 224 0.0 0.0 0.00 0.03 0.00 93 1028.2
20240420040046 38 224 0.0 0.0 0.00 0.03 0.00 93 1028.2
20240420035544 38 224 0.0 0.0 0.00 0.03 0.00 93 1028.1
20240420035044 38 224 0.0 0.0 0.00 0.03 0.00 93 1028.2
20240420034545 38 224 0.0 0.0 0.00 0.03 0.00 93 1028.3
20240420034044 38 224 0.0 0.0 0.00 0.03 0.00 93 1028.2
20240420033544 38 224 0.0 0.0 0.00 0.03 0.00 93 1028.2
20240420033047 38 224 0.0 0.0 0.00 0.03 0.00 93 1028.3
20240420032542 38 224 0.0 0.0 0.00 0.03 0.00 92 1028.2
20240420032041 38 224 0.0 0.0 0.00 0.03 0.00 92 1028.1
20240420031545 38 224 0.0 0.0 0.00 0.03 0.00 93 1028.1
20240420031040 38 224 0.0 0.0 0.00 0.03 0.00 92 1028.1
20240420030539 38 224 0.0 0.0 0.00 0.03 0.00 92 1028.0
20240420030042 38 224 0.0 0.0 0.00 0.03 0.00 92 1027.9
20240420025539 38 224 0.0 0.0 0.00 0.03 0.00 92 1027.9
20240420025041 38 224 0.0 0.0 0.00 0.03 0.00 92 1027.8
20240420024536 38 224 0.0 0.0 0.00 0.03 0.00 92 1027.8
20240420024038 38 224 0.0 0.0 0.00 0.03 0.00 92 1027.8
20240420023535 39 224 0.0 0.0 0.00 0.03 0.00 92 1027.8
20240420023041 39 224 0.0 0.0 0.00 0.03 0.00 92 1027.7
20240420022534 38 224 0.0 0.0 0.00 0.03 0.00 92 1027.7
20240420022032 38 224 0.0 0.0 0.00 0.03 0.00 92 1027.7
20240420021534 39 224 0.0 0.0 0.00 0.03 0.00 91 1027.7
20240420021032 39 224 0.0 0.0 0.00 0.03 0.00 91 1027.7
20240420020531 39 224 0.0 0.0 0.00 0.03 0.00 91 1027.7
20240420020043 39 224 0.0 0.0 0.00 0.03 0.00 91 1027.6
20240420015530 39 224 0.0 0.0 0.00 0.03 0.00 91 1027.6
20240420015030 39 224 0.0 0.0 0.00 0.03 0.00 91 1027.6
20240420014530 39 224 0.0 0.0 0.00 0.03 0.00 91 1027.6
20240420014029 39 224 0.0 0.0 0.00 0.03 0.00 91 1027.6
20240420013528 39 224 0.0 0.0 0.00 0.03 0.00 91 1027.5
20240420013028 39 224 0.0 0.0 0.00 0.03 0.00 90 1027.5
20240420012530 39 224 0.0 0.0 0.00 0.03 0.00 90 1027.5
20240420012027 39 224 0.0 0.0 0.00 0.03 0.00 90 1027.5
20240420011526 39 224 0.0 0.0 0.00 0.03 0.00 90 1027.5
20240420011029 39 224 0.0 0.0 0.00 0.03 0.00 90 1027.6
20240420010525 40 224 0.0 0.0 0.00 0.03 0.00 90 1027.4
20240420010028 40 224 0.0 0.0 0.00 0.03 0.00 90 1027.4
20240420005526 40 224 0.0 0.0 0.00 0.03 0.00 90 1027.4
20240420005023 40 224 0.0 0.0 0.00 0.03 0.00 89 1027.4
20240420004536 40 224 0.0 0.0 0.00 0.03 0.00 89 1027.3
20240420004022 40 224 0.0 0.0 0.00 0.03 0.00 89 1027.2
20240420003526 40 224 0.0 0.0 0.00 0.03 0.00 89 1027.2
20240420003020 40 224 0.0 0.0 0.00 0.03 0.00 88 1027.3
20240420002519 40 224 0.0 0.0 0.00 0.03 0.00 88 1027.1
20240420002019 40 224 0.0 0.0 0.00 0.03 0.00 88 1027.1
20240420001519 40 224 0.0 0.0 0.00 0.03 0.00 88 1027.1
20240420001019 40 224 0.0 0.0 0.00 0.03 0.00 87 1027.1
20240420000521 41 224 0.0 0.0 0.00 0.03 0.00 87 1027.0
20240420000017 41 224 0.0 0.0 0.00 0.03 0.00 87 1027.1
20240419235516 41 224 0.0 2.6 0.00 0.03 0.00 87 1027.1
20240419235015 41 224 0.0 2.6 0.00 0.03 0.00 86 1027.0
20240419234517 41 56 0.0 0.0 0.00 0.03 0.00 86 1027.1
20240419234014 42 56 0.0 0.0 0.00 0.03 0.00 86 1027.1
20240419233513 42 56 0.0 0.0 0.00 0.03 0.00 86 1027.0
20240419233011 42 56 0.0 0.0 0.00 0.03 0.00 85 1027.0
20240419232514 42 56 0.0 0.0 0.00 0.03 0.00 84 1027.0
20240419232009 43 56 0.0 0.0 0.00 0.03 0.00 83 1026.9
20240419231525 43 56 0.0 0.0 0.00 0.03 0.00 83 1027.0
20240419231007 43 56 0.0 0.0 0.00 0.03 0.00 83 1027.0
20240419230506 44 56 0.0 0.0 0.00 0.03 0.00 82 1026.9
20240419230010 44 56 0.0 0.0 0.00 0.03 0.03 81 1027.0
20240419225504 44 56 0.0 0.0 0.00 0.03 0.03 80 1027.0
20240419225003 45 56 0.0 0.0 0.00 0.03 0.03 80 1026.8
20240419224504 45 56 0.0 0.0 0.00 0.03 0.03 79 1026.9
20240419224001 45 56 0.0 0.9 0.00 0.03 0.03 79 1026.8
20240419223500 46 56 0.0 1.7 0.00 0.03 0.03 78 1026.9
20240419223100 46 56 0.0 1.7 0.00 0.03 0.03 77 1026.8
20240419222558 46 56 0.0 1.7 0.00 0.03 0.03 77 1026.7
20240419222059 47 56 0.0 0.9 0.00 0.03 0.03 77 1026.6
20240419221557 47 56 0.0 0.0 0.00 0.03 0.03 76 1026.6
20240419221056 47 56 0.0 2.6 0.00 0.03 0.03 76 1026.5
20240419220556 47 56 0.9 2.6 0.00 0.03 0.03 76 1026.6
20240419220056 47 347 0.0 3.5 0.00 0.03 0.03 75 1026.6
20240419215555 47 359 0.9 3.5 0.00 0.03 0.03 76 1026.2
20240419215054 47 359 0.0 1.7 0.00 0.03 0.03 78 1026.3
20240419214607 47 359 0.0 1.7 0.00 0.03 0.03 77 1026.4
20240419214053 47 359 0.0 1.7 0.00 0.03 0.03 76 1026.4
20240419213553 48 359 0.0 2.6 0.00 0.03 0.03 77 1026.2
20240419213052 48 94 0.0 2.6 0.00 0.03 0.03 77 1026.1
20240419212552 48 96 1.7 2.6 0.00 0.03 0.03 77 1026.2
20240419212055 48 91 0.0 2.6 0.00 0.03 0.03 76 1026.0
20240419211554 48 91 0.0 3.5 0.00 0.03 0.03 76 1026.1
20240419211050 48 94 0.9 3.5 0.00 0.03 0.03 76 1026.0
20240419210550 48 77 0.0 2.6 0.00 0.03 0.03 77 1025.9
20240419210051 48 93 0.0 1.7 0.00 0.03 0.03 77 1025.8
20240419205548 49 94 0.0 1.7 0.00 0.03 0.03 77 1025.7
20240419205047 49 94 0.0 1.7 0.00 0.03 0.03 76 1025.7
20240419204551 49 94 0.9 1.7 0.00 0.03 0.03 76 1025.7
20240419204047 49 15 0.0 2.6 0.00 0.03 0.03 75 1025.6
20240419203548 49 11 0.0 2.6 0.00 0.03 0.03 75 1025.5
20240419203047 49 356 0.0 3.5 0.00 0.03 0.03 75 1025.5
20240419202546 49 9 0.9 4.3 0.00 0.03 0.03 76 1025.5
20240419202045 50 359 0.9 4.3 0.00 0.03 0.03 75 1025.4
20240419201545 50 24 0.9 4.3 0.00 0.03 0.03 75 1025.4
20240419201044 50 82 0.9 4.3 0.00 0.03 0.03 74 1025.3
20240419200545 50 81 0.9 4.3 0.00 0.03 0.03 75 1025.2
20240419200048 50 359 0.9 4.3 0.00 0.03 0.03 75 1025.1
20240419195543 50 84 0.0 3.5 0.00 0.03 0.03 75 1025.1
20240419195042 50 15 0.9 5.2 0.00 0.03 0.03 74 1025.1
20240419194543 51 58 0.9 3.5 0.00 0.03 0.03 75 1025.0
20240419194040 51 360 1.7 6.1 0.00 0.03 0.03 75 1024.9
20240419193540 51 358 1.7 6.1 0.00 0.03 0.03 75 1024.8
20240419193044 51 352 0.0 6.1 0.00 0.03 0.03 75 1024.7
20240419192539 51 41 0.9 6.1 0.00 0.03 0.03 75 1024.8
20240419192039 51 37 0.0 3.5 0.00 0.03 0.03 75 1024.8
20240419191541 51 353 0.9 3.5 0.00 0.03 0.03 75 1024.6
20240419191037 51 30 0.9 4.3 0.00 0.03 0.03 74 1024.5
20240419190537 51 359 1.7 4.3 0.00 0.03 0.03 74 1024.4
20240419190037 52 1 0.9 3.5 0.00 0.03 0.03 74 1024.4
20240419185538 52 94 0.9 5.2 0.00 0.03 0.03 74 1024.3
20240419185035 52 100 0.9 5.2 0.00 0.03 0.03 73 1024.3
20240419184539 52 94 1.7 4.3 0.00 0.03 0.03 73 1024.1
20240419184034 53 1 0.9 4.3 0.00 0.03 0.03 74 1024.0
20240419183534 53 84 0.9 2.6 0.00 0.03 0.03 74 1024.0
20240419183041 53 72 0.9 4.3 0.00 0.03 0.03 73 1024.0
20240419182533 53 98 0.9 4.3 0.00 0.03 0.03 73 1023.9
20240419182032 53 54 1.7 4.3 0.00 0.03 0.03 73 1023.8
20240419181533 54 353 0.9 5.2 0.00 0.03 0.03 73 1023.9
20240419181031 54 49 1.7 5.2 0.00 0.03 0.03 74 1023.9
20240419180533 54 97 1.7 4.3 0.00 0.03 0.03 76 1023.8
20240419180034 54 31 0.9 3.5 0.00 0.03 0.03 78 1023.7
20240419175529 54 111 0.0 3.5 0.00 0.03 0.03 78 1023.6
20240419175028 54 111 0.9 5.2 0.00 0.03 0.03 77 1023.5
20240419174528 54 114 0.9 5.2 0.00 0.03 0.03 77 1023.5
20240419174031 55 76 1.7 4.3 0.00 0.03 0.03 76 1023.6
20240419173528 55 7 0.9 5.2 0.00 0.03 0.03 73 1023.4
20240419173027 55 359 0.9 4.3 0.00 0.03 0.03 74 1023.4
20240419172526 55 333 0.9 3.5 0.00 0.03 0.03 75 1023.2
20240419172026 55 326 0.9 5.2 0.00 0.03 0.03 75 1023.1
20240419171526 55 297 0.9 4.3 0.00 0.03 0.03 75 1023.3
20240419171025 55 294 1.7 3.5 0.00 0.03 0.03 75 1023.4
20240419170529 55 338 0.9 3.5 0.00 0.03 0.03 75 1023.2
20240419170033 55 325 0.9 3.5 0.00 0.03 0.03 77 1023.2
20240419165524 55 277 0.0 3.5 0.00 0.03 0.03 77 1023.1
20240419165022 55 269 0.9 3.5 0.00 0.03 0.03 78 1023.1
20240419164522 54 358 0.0 3.5 0.00 0.03 0.03 80 1023.1
20240419164021 54 1 1.7 3.5 0.00 0.03 0.03 82 1023.1
20240419163523 53 104 0.0 3.5 0.00 0.03 0.03 84 1023.1
20240419163021 53 106 0.0 4.3 0.00 0.03 0.03 84 1023.1
20240419162521 53 104 1.7 4.3 0.00 0.03 0.03 84 1023.1